Cocoa Beach, FL

11:53 AM EST on February 24, 2018 (GMT -0500)
Cape Canaveral Air Station Skid Strip

Weather History for KXMR - July, 2013

Change the Weather History Date:

Monday, July 15, 2013

  Actual Average (KCOF) Record (KCOF)
Temperature  
Mean Temperature 76 °F -  
Max Temperature 84 °F 85 °F 94 °F (2015)
Min Temperature 68 °F 74 °F 73 °F (2013)
Cooling Degree Days 11    
Growing Degree Days 26 (Base 50)    
Moisture  
Dew Point 74 °F    
Average Humidity 90    
Maximum Humidity 100    
Minimum Humidity 77    
Precipitation  
Precipitation 0.02 in - - ()
Sea Level Pressure  
Sea Level Pressure 30.10 in    
Wind  
Wind Speed 5 mph (NE)    
Max Wind Speed 10 mph    
Max Gust Speed 17 mph    
Visibility 10 miles    
Events Rain , Thunderstorm    
Averages and records for this station are not official NWS values.
T = Trace of Precipitation, MM = Missing Value Source: NWS Daily Summary

Daily Weather History Graph

Daily Weather History Graph

Search for Another Location

Airport or City:

Trip Planner

Search our weather history database for the weather conditions in past years. The results will help you decide how hot, cold, wet, or windy it might be!

Date:

Astronomy

Jul. 15, 2013 Rise Set
Actual Time 6:34 AM EDT 8:21 PM EDT
Civil Twilight 6:08 AM EDT 8:47 PM EDT
Nautical Twilight 5:36 AM EDT 9:19 PM EDT
Astronomical Twilight 5:03 AM EDT 9:52 PM EDT
Moon 1:12 PM EDT (7/15) 12:10 AM EDT (7/15)
Length of Visible Light 14h 39m
Length of Day
13h 46m
Waxing Crescent, 45% of the Moon is Illuminated
Jul 15
Waxing Crescent
Jul 15
First Quarter
Jul 22
Full
Jul 29
Last Quarter
Aug 6
New

Hourly Weather History & Observations

Time (EDT) Temp. Heat Index Dew Point Humidity Pressure Visibility Wind Dir Wind Speed Gust Speed Precip Events Conditions
2:58 AM 69.1 °F - 69.1 °F 100% 30.11 in 10.0 mi NNE 1.2 mph - N/A   Clear
3:03 AM 68.0 °F - 68.0 °F 100% 30.10 in 9.0 mi NE 2.3 mph - N/A   Clear
3:55 AM 69.8 °F - 69.8 °F 100% 30.09 in 10.0 mi Calm Calm - N/A   Clear
4:55 AM 68.0 °F - 68.0 °F 100% 30.08 in 10.0 mi North 2.3 mph - N/A   Clear
5:58 AM 71.8 °F - 71.1 °F 98% 30.09 in 10.0 mi North 5.8 mph - N/A   Clear
6:58 AM 72.3 °F - 72.0 °F 99% 30.10 in 10.0 mi North 4.6 mph - N/A   Clear
7:58 AM 73.4 °F - 72.5 °F 97% 30.11 in 10.0 mi North 2.3 mph - N/A   Clear
8:58 AM 77.5 °F - 74.7 °F 91% 30.12 in 10.0 mi NNE 5.8 mph - N/A Thunderstorm Clear
9:32 AM 78.8 °F - 75.2 °F 89% 30.11 in 10.0 mi NNE 6.9 mph - N/A   Light Drizzle
9:44 AM 78.8 °F - 75.2 °F 89% 30.11 in 10.0 mi NNE 5.8 mph - N/A   Clear
9:51 AM 80.6 °F 86.2 °F 75.2 °F 84% 30.10 in 10.0 mi North 6.9 mph - N/A Rain Light Rain
9:58 AM 80.6 °F 86.4 °F 75.6 °F 85% 30.12 in 10.0 mi NNE 5.8 mph - 0.00 in Rain Light Rain
10:12 AM 78.8 °F - 75.2 °F 89% 30.11 in 10.0 mi NNE 6.9 mph - N/A   Clear
10:37 AM 78.8 °F - 75.2 °F 89% 30.12 in 10.0 mi North 8.1 mph - N/A   Light Drizzle
10:58 AM 77.5 °F - 75.7 °F 94% 30.13 in 10.0 mi North 9.2 mph - 0.00 in   Light Drizzle
11:00 AM 77.0 °F - 75.2 °F 94% 30.12 in 10.0 mi NNE 8.1 mph - N/A   Clear
11:58 AM 81.9 °F 88.9 °F 75.7 °F 82% 30.12 in 10.0 mi North 5.8 mph - 0.00 in Thunderstorm Partly Cloudy
12:58 PM 82.9 °F 90.8 °F 75.9 °F 79% 30.11 in 10.0 mi NNE 8.1 mph - N/A   Partly Cloudy
1:11 PM 82.4 °F 89.5 °F 75.2 °F 79% 30.11 in 10.0 mi NNE 9.2 mph - N/A   Light Drizzle
1:22 PM 80.6 °F 86.2 °F 75.2 °F 84% 30.10 in 10.0 mi NNE 8.1 mph - N/A   Clear
1:58 PM 84.0 °F 92.9 °F 76.1 °F 77% 30.10 in 10.0 mi ENE 9.2 mph - 0.00 in   Clear
2:08 PM 82.4 °F 90.9 °F 77.0 °F 84% 30.09 in 6.0 mi NE 9.2 mph - N/A Rain Light Rain
2:32 PM 78.8 °F - 77.0 °F 94% 30.08 in 10.0 mi NE 5.8 mph - N/A   Clear
3:55 PM 82.4 °F 89.5 °F 75.2 °F 79% 30.07 in 10.0 mi NE 9.2 mph - N/A   Clear
4:58 PM 82.9 °F 90.8 °F 75.9 °F 79% 30.07 in 10.0 mi Variable 6.9 mph - N/A   Clear
5:58 PM 82.2 °F 89.6 °F 75.9 °F 81% 30.07 in 10.0 mi ESE 10.4 mph 17.3 mph N/A   Clear
6:58 PM 80.8 °F 86.9 °F 75.9 °F 85% 30.07 in 10.0 mi East 8.1 mph 16.1 mph N/A   Clear
7:58 PM 78.8 °F - 75.6 °F 90% 30.09 in 10.0 mi ESE 6.9 mph - N/A   Clear
8:51 PM 77.0 °F - 73.4 °F 89% 30.09 in 10.0 mi ESE 6.9 mph - N/A Rain Light Rain
8:56 PM 77.0 °F - 75.2 °F 94% 30.09 in 7.0 mi East 8.1 mph - N/A Rain Light Rain
8:58 PM 77.7 °F - 74.5 °F 90% 30.10 in 7.0 mi East 8.1 mph - 0.00 in Rain Light Rain
9:06 PM 77.0 °F - 75.2 °F 94% 30.09 in 10.0 mi East 5.8 mph - N/A   Clear
9:58 PM 75.7 °F - 74.3 °F 95% 30.13 in 10.0 mi ESE 8.1 mph - 0.00 in   Clear
10:58 PM 75.0 °F - 74.1 °F 97% 30.15 in 10.0 mi ESE 5.8 mph - N/A   Clear
11:58 PM 75.6 °F - 74.3 °F 96% 30.14 in 10.0 mi ESE 5.8 mph - N/A   Clear